Tracking 35334 objects as of 13-Sep-2026
HD Live streaming from Space Station
objects crossing your sky now

ARIANE 44L DEB

Track ARIANE 44L DEB now!
10-day predictions


NORAD ID: 48419
Int'l Code: 1991-075Q
Launch date: October 29, 1991
Source: France (FR)
Launch site: FRENCH GUIANA (FRGUI)

Note: This is SATELLITE DEBRIS
Your satellite tracking list
Your tracking list is empty




NASA's NSSDC Master Catalog

Two Line Element Set (TLE):
1 48419U 91075Q   26255.12300629  .00001420  00000-0  35177-2 0  9993
2 48419   6.9379 143.3092 6363697 119.4768 317.7102  3.36502157153158
Source of the keplerian elements: AFSPC